TimeMST,TemperatureF,Dew PointF,Humidity,Sea Level PressureIn,VisibilityMPH,Wind Direction,Wind SpeedMPH,Gust SpeedMPH,PrecipitationIn,Events,Conditions,WindDirDegrees,DateUTC
12:53 AM,54.0,33.1,45,29.82,10.0,North,3.5,-,N/A,,Clear,10,2013-02-04 07:53:00
1:53 AM,52.0,32.0,47,29.82,10.0,North,8.1,-,N/A,,Clear,360,2013-02-04 08:53:00
3:53 AM,45.0,32.0,60,29.84,10.0,NW,9.2,-,N/A,,Mostly Cloudy,320,2013-02-04 10:53:00
4:53 AM,45.0,30.0,56,29.84,10.0,NW,9.2,-,N/A,,Scattered Clouds,320,2013-02-04 11:53:00
5:53 AM,45.0,30.0,56,29.86,10.0,NW,6.9,-,N/A,,Mostly Cloudy,310,2013-02-04 12:53:00
6:53 AM,45.0,30.0,56,29.87,10.0,NW,11.5,-,N/A,,Clear,320,2013-02-04 13:53:00
7:53 AM,46.9,28.9,50,29.91,10.0,NW,6.9,-,N/A,,Clear,320,2013-02-04 14:53:00
8:53 AM,59.0,30.9,35,29.91,10.0,NNW,8.1,-,N/A,,Clear,340,2013-02-04 15:53:00
9:53 AM,59.0,25.0,27,29.91,10.0,North,18.4,-,N/A,,Clear,350,2013-02-04 16:53:00
10:53 AM,61.0,19.9,21,29.92,10.0,NNW,18.4,24.2,N/A,,Clear,330,2013-02-04 17:53:00
11:53 AM,63.0,17.1,17,29.90,10.0,NNW,17.3,-,N/A,,Clear,340,2013-02-04 18:53:00
12:53 PM,64.0,15.1,15,29.88,10.0,NW,17.3,23.0,N/A,,Clear,320,2013-02-04 19:53:00
1:53 PM,64.9,14.0,14,29.85,10.0,NNW,16.1,23.0,N/A,,Clear,340,2013-02-04 20:53:00
2:53 PM,64.9,10.9,12,29.85,10.0,NW,13.8,-,N/A,,Clear,320,2013-02-04 21:53:00
3:53 PM,64.9,12.0,13,29.85,10.0,North,11.5,-,N/A,,Clear,350,2013-02-04 22:53:00
4:53 PM,64.0,10.9,13,29.86,10.0,North,9.2,-,N/A,,Clear,350,2013-02-04 23:53:00
5:53 PM,53.1,12.9,20,29.89,10.0,North,3.5,-,N/A,,Clear,350,2013-02-05 00:53:00
6:53 PM,46.9,14.0,27,29.91,10.0,NW,5.8,-,N/A,,Clear,310,2013-02-05 01:53:00
7:53 PM,44.1,14.0,30,29.92,10.0,West,5.8,-,N/A,,Clear,270,2013-02-05 02:53:00
8:53 PM,44.1,15.1,31,29.91,10.0,WSW,9.2,-,N/A,,Clear,250,2013-02-05 03:53:00
9:53 PM,44.1,15.1,31,29.91,10.0,West,5.8,-,N/A,,Clear,260,2013-02-05 04:53:00
10:53 PM,43.0,15.1,32,29.91,10.0,WSW,8.1,-,N/A,,Clear,240,2013-02-05 05:53:00
11:53 PM,39.0,16.0,39,29.91,10.0,West,6.9,-,N/A,,Clear,280,2013-02-05 06:53:00